[[{"header":{"parameterUnit":"m.s-1","parameterCategory":1,"la1":30.2991,"la2":30.254,"lo1":-89.0895,"lo2":-89.0444,"dy":0.0017,"dx":0.0017,"nx":28,"ny":28,"refTime":"2023-09-22T21:00:00:Z","depth":0,"parameterNumber":2,"parameterNumberName":"U-component_of_WINDS"},"data":[0,0,0,0,0,0,0,0,0,0,0,0,0,0,0,0,0,0,0,0,0,0,0,0,0,0,0,0,0,0,0,0,0,0,0,0,0,0,0,0,0,0,0,0,0,0,0,0,0,0,0,0,0,0,0,0,0,0,-0.0209,-0.0209,0,-0.022,-0.022,-0.022,-0.0219,-0.0219,-0.0219,-0.0219,-0.023,-0.023,-0.0231,0,0,0,0,0,0,0,0,0,0,0,0,0,-0.0189,-0.0189,-0.0209,-0.0209,-0.0209,-0.022,-0.022,-0.022,-0.0219,-0.0219,-0.0219,-0.0219,-0.023,-0.023,-0.0231,0,0,0,0,0,0,0,0,0,0,0,0,0,-0.0198,-0.0189,-0.0209,-0.021,-0.021,-0.022,-0.022,-0.022,-0.0219,-0.0219,-0.0219,-0.0219,-0.023,-0.023,-0.0231,-0.024,0,0,-0.0233,-0.0233,0,0,0,0,0,0,0,0,-0.0198,-0.0199,-0.021,-0.021,-0.021,-0.0218,-0.0217,-0.0227,-0.0219,-0.0216,-0.0219,-0.0219,-0.0226,-0.0227,-0.023,-0.024,-0.0241,-0.0233,-0.0233,-0.0234,-0.0234,0,0,0,0,0,0,0,-0.0197,-0.0199,-0.0213,-0.021,-0.021,-0.0211,-0.0212,-0.0219,-0.0222,-0.0216,-0.0216,-0.0218,-0.0226,-0.0229,-0.023,-0.0241,-0.0233,-0.0234,-0.0234,-0.0234,-0.0261,-0.0261,0,0,0,0,0,0,-0.0196,-0.0198,-0.0213,-0.0214,-0.0203,-0.0211,-0.0212,-0.0216,-0.0222,-0.0223,-0.0218,-0.0217,-0.0228,-0.0229,-0.023,-0.0242,-0.0234,-0.0234,-0.0235,-0.0261,-0.0261,-0.0261,0,0,0,0,0,0,-0.0196,-0.0197,-0.0212,-0.0206,-0.0208,-0.0212,-0.0216,-0.0216,-0.0219,-0.0223,-0.0224,-0.022,-0.0228,-0.0229,-0.0238,-0.0242,-0.0235,-0.0235,-0.026,-0.0261,-0.0261,-0.0265,0,0,0,0,0,0,-0.0195,-0.0197,-0.02,-0.0206,-0.0208,-0.0219,-0.0216,-0.0216,-0.022,-0.022,-0.0225,-0.0226,-0.0228,-0.0237,-0.0238,-0.0243,-0.0236,-0.026,-0.026,-0.0261,-0.0264,-0.0266,-0.0266,0,0,0,0,0,-0.0194,-0.0201,-0.02,-0.0202,-0.0212,-0.022,-0.0221,-0.0223,-0.022,-0.0224,-0.0227,-0.0226,-0.0242,-0.0238,-0.0239,-0.0244,-0.026,-0.026,-0.0261,-0.0264,-0.0265,-0.0266,0,0,0,0,0,0,-0.0195,-0.0201,-0.0201,-0.0209,-0.0214,-0.0219,-0.0224,-0.0224,-0.0229,-0.0229,-0.0231,-0.0232,-0.0241,-0.0243,-0.0239,-0.0254,-0.025,-0.0251,-0.0252,-0.0253,-0.0254,-0.0254,-0.0236,0,0,0,0,0,-0.0196,-0.0202,-0.0207,-0.0214,-0.0216,-0.022,-0.0223,-0.0224,-0.0229,-0.0231,-0.0234,-0.0239,-0.0246,-0.0249,-0.0255,-0.0265,-0.0267,-0.0269,-0.027,-0.0271,-0.0272,-0.0279,-0.028,-0.0264,-0.0264,-0.0264,0,0,-0.0199,-0.0203,-0.0206,-0.0214,-0.0218,-0.0224,-0.0221,-0.0227,-0.0232,-0.0232,-0.024,-0.0243,-0.0249,-0.0258,-0.0263,-0.0261,-0.0277,-0.0272,-0.0273,-0.0273,-0.028,-0.0281,-0.0283,-0.0264,-0.0264,-0.0264,0,0,-0.0207,-0.021,-0.0216,-0.022,-0.0226,-0.0229,-0.023,-0.0236,-0.0238,-0.0247,-0.0247,-0.0253,-0.0263,-0.0267,-0.0271,-0.0282,-0.0282,-0.0284,-0.0289,-0.0295,-0.0297,-0.0298,-0.0303,-0.0305,-0.0285,-0.0285,-0.0285,0,-0.0209,-0.0218,-0.022,-0.0227,-0.0231,-0.0231,-0.0238,-0.0242,-0.0249,-0.0252,-0.025,-0.0264,-0.0267,-0.0279,-0.0281,-0.0284,-0.0287,-0.0283,-0.0296,-0.0298,-0.0299,-0.0304,-0.0305,-0.0285,-0.0285,-0.0285,-0.0285,0,-0.0221,-0.0227,-0.0232,-0.024,-0.0244,-0.0251,-0.0255,-0.0259,-0.026,-0.0263,-0.0272,-0.0277,-0.0284,-0.0287,-0.0288,-0.0299,-0.0298,-0.0296,-0.0292,-0.0301,-0.0305,-0.0307,-0.0285,-0.0285,-0.0285,-0.0285,0,0,-0.0229,-0.0238,-0.024,-0.0244,-0.0251,-0.0256,-0.0264,-0.0271,-0.0276,-0.0281,-0.0288,-0.0297,-0.0296,-0.03,-0.0302,-0.0307,-0.0317,-0.0305,-0.0305,-0.0308,-0.0331,-0.0333,-0.0335,-0.0317,-0.0317,-0.0318,-0.0331,0,-0.0238,-0.0251,-0.0253,-0.0265,-0.0272,-0.0273,-0.0279,-0.0285,-0.0288,-0.0294,-0.0298,-0.0305,-0.0302,-0.0305,-0.0311,-0.0315,-0.0322,-0.0314,-0.0324,-0.0325,-0.0323,-0.0337,-0.0338,-0.0351,-0.0332,-0.0333,-0.0333,0,-0.025,-0.0256,-0.0268,-0.0276,-0.0279,-0.0285,-0.0293,-0.0299,-0.0305,-0.0307,-0.0313,-0.0314,-0.0322,-0.0318,-0.0331,-0.0325,-0.033,-0.0332,-0.0333,-0.0334,-0.033,-0.034,-0.0354,-0.0357,-0.0336,-0.0335,-0.0335,0,-0.0255,-0.0267,-0.0276,-0.028,-0.0288,-0.0293,-0.0297,-0.0303,-0.0308,-0.0315,-0.0318,-0.0326,-0.033,-0.0337,-0.034,-0.0337,-0.0353,-0.0349,-0.0356,-0.0356,-0.0359,-0.0359,-0.0376,-0.0361,-0.0361,-0.0361,-0.0361,0,-0.0265,-0.0273,-0.0279,-0.0285,-0.0294,-0.0297,-0.0306,-0.031,-0.0316,-0.0323,-0.0324,-0.0331,-0.0335,-0.0343,-0.0346,-0.0356,-0.0358,-0.036,-0.0361,-0.0361,-0.0361,-0.0364,-0.0364,-0.0361,-0.0361,-0.0361,-0.0361,0,-0.0273,-0.0277,-0.0288,-0.0296,-0.0298,-0.0304,-0.0311,-0.0317,-0.0321,-0.033,-0.0332,-0.0338,-0.0347,-0.0351,-0.0362,-0.0364,-0.0377,-0.0377,-0.0375,-0.0375,-0.0382,-0.0382,-0.0403,-0.0406,-0.0388,-0.0388,-0.0388,0,-0.0279,-0.0286,-0.0294,-0.0299,-0.0304,-0.0311,-0.0317,-0.032,-0.0326,-0.0335,-0.034,-0.0349,-0.0357,-0.0372,-0.0377,-0.0386,-0.0387,-0.0393,-0.0388,-0.0388,-0.0388,-0.0388,-0.0389,-0.0394,-0.0394,-0.0394,-0.0395,0,-0.0291,-0.0293,-0.03,-0.0309,-0.0315,-0.0322,-0.0329,-0.0333,-0.0338,-0.0344,-0.0354,-0.036,-0.0372,-0.0381,-0.0391,-0.0395,-0.0396,-0.0396,-0.0399,-0.0398,-0.0398,-0.0399,-0.0378,-0.0396,-0.0396,-0.0396,-0.0396,-0.0395,-0.0298,-0.0304,-0.0312,-0.0321,-0.0327,-0.0333,-0.034,-0.0345,-0.0353,-0.0363,-0.0365,-0.0375,-0.0383,-0.0396,-0.0401,-0.041,-0.0409,-0.0411,-0.0412,-0.0413,-0.0414,-0.0396,-0.0412,-0.0412,-0.0412,-0.0412,-0.0412,0,-0.031,-0.0316,-0.0324,-0.0334,-0.0341,-0.0341,-0.0349,-0.0355,-0.0365,-0.0372,-0.038,-0.0392,-0.0401,-0.0408,-0.0418,-0.0424,-0.0425,-0.0426,-0.0426,-0.0428,-0.0414,-0.0412,-0.0426,-0.0426,-0.0426,-0.0426,-0.0426,-0.0426,-0.0317,-0.0328,-0.0332,-0.0346,-0.0351,-0.0361,-0.0366,-0.0373,-0.0379,-0.0392,-0.04,-0.0405,-0.0412,-0.0423,-0.0433,-0.0434,-0.0438,-0.0441,-0.0442,-0.043,-0.0428,-0.0427,-0.0425,-0.0441,-0.0441,-0.0455,-0.0455,-0.0455]},{"header":{"parameterUnit":"m.s-1","parameterCategory":1,"la1":30.2991,"la2":30.254,"lo1":-89.0895,"lo2":-89.0444,"dy":0.0017,"dx":0.0017,"nx":28,"ny":28,"refTime":"2023-09-22T21:00:00:Z","depth":0,"parameterNumber":3,"parameterNumberName":"V-component_of_WINDS"},"data":[0,0,0,0,0,0,0,0,0,0,0,0,0,0,0,0,0,0,0,0,0,0,0,0,0,0,0,0,0,0,0,0,0,0,0,0,0,0,0,0,0,0,0,0,0,0,0,0,0,0,0,0,0,0,0,0,0,0,3.2522,3.2522,0,3.25,3.25,3.25,3.2425,3.2424,3.2422,3.242,3.2398,3.2399,3.24,0,0,0,0,0,0,0,0,0,0,0,0,0,3.2499,3.25,3.2522,3.2522,3.2522,3.25,3.25,3.25,3.2426,3.2423,3.2421,3.2419,3.2398,3.2399,3.24,0,0,0,0,0,0,0,0,0,0,0,0,0,3.2496,3.25,3.2522,3.2482,3.2478,3.2501,3.25,3.25,3.2426,3.2423,3.2421,3.2419,3.2397,3.2399,3.24,3.246,0,0,3.2405,3.2405,0,0,0,0,0,0,0,0,3.2496,3.2497,3.2488,3.2485,3.2481,3.2463,3.2484,3.2486,3.2427,3.2446,3.242,3.2417,3.2422,3.2421,3.2422,3.2459,3.2458,3.2405,3.2406,3.2406,3.2407,0,0,0,0,0,0,0,3.2497,3.2498,3.2514,3.2488,3.2484,3.2465,3.2462,3.2484,3.2448,3.2444,3.2438,3.2437,3.2419,3.2421,3.2421,3.2457,3.2405,3.2406,3.2407,3.2407,3.2538,3.2541,0,0,0,0,0,0,3.2503,3.2498,3.2514,3.2513,3.2482,3.2467,3.2464,3.2471,3.2448,3.2442,3.2439,3.2433,3.242,3.242,3.242,3.2486,3.2406,3.2408,3.2408,3.2536,3.2539,3.2542,0,0,0,0,0,0,3.2502,3.2505,3.2515,3.2504,3.2504,3.247,3.2479,3.2472,3.2474,3.2444,3.2437,3.2448,3.2418,3.2418,3.245,3.2484,3.2408,3.241,3.2533,3.2537,3.254,3.262,0,0,0,0,0,0,3.2502,3.2505,3.2528,3.2505,3.2505,3.2546,3.2482,3.2473,3.2477,3.2469,3.245,3.2445,3.2416,3.2448,3.2451,3.2485,3.2411,3.253,3.2535,3.2539,3.2614,3.2626,3.2636,0,0,0,0,0,3.2502,3.2552,3.2529,3.2532,3.2532,3.2548,3.2548,3.2513,3.248,3.2502,3.2482,3.2445,3.2481,3.2452,3.2455,3.249,3.2527,3.2533,3.2539,3.2609,3.2623,3.2636,0,0,0,0,0,0,3.2579,3.2548,3.2523,3.2567,3.2561,3.2535,3.2562,3.253,3.2533,3.2526,3.2484,3.248,3.2517,3.2507,3.2475,3.2545,3.2498,3.2504,3.255,3.2563,3.2574,3.2575,3.2412,0,0,0,0,0,3.2602,3.2617,3.2589,3.263,3.2628,3.2596,3.2602,3.2576,3.2567,3.2564,3.2547,3.254,3.2549,3.2556,3.2563,3.2613,3.2606,3.2638,3.2649,3.2658,3.2664,3.2687,3.27,3.2561,3.2561,3.2561,0,0,3.2648,3.2633,3.2645,3.2646,3.2638,3.2653,3.2594,3.2614,3.2625,3.2567,3.2595,3.2582,3.2572,3.2612,3.2629,3.2604,3.2701,3.2666,3.2673,3.2674,3.2694,3.2707,3.2719,3.2565,3.2564,3.2564,0,0,3.274,3.2731,3.2763,3.2756,3.2744,3.2722,3.273,3.2709,3.2698,3.2726,3.2682,3.2695,3.2712,3.2705,3.2704,3.2793,3.2758,3.2797,3.2854,3.2877,3.2888,3.2897,3.2926,3.2938,3.2803,3.2803,3.2803,0,3.2799,3.2821,3.2784,3.2806,3.2807,3.2755,3.2786,3.2782,3.2773,3.2775,3.2748,3.2767,3.2756,3.2793,3.2814,3.2816,3.2823,3.2797,3.2889,3.2898,3.2907,3.2934,3.2945,3.2807,3.2807,3.2806,3.2806,0,3.2893,3.2909,3.2937,3.2928,3.2933,3.296,3.2926,3.2935,3.2909,3.2889,3.2917,3.2903,3.2904,3.2912,3.2887,3.2945,3.2929,3.2897,3.2848,3.2925,3.295,3.296,3.2814,3.2812,3.2811,3.281,0,0,3.3032,3.3003,3.3013,3.3008,3.2991,3.3002,3.3027,3.3028,3.3035,3.3032,3.3049,3.3065,3.3034,3.3033,3.3007,3.3027,3.3095,3.2991,3.299,3.3009,3.3155,3.3178,3.3191,3.3073,3.3075,3.3076,3.3155,0,3.3117,3.3156,3.3123,3.3168,3.3182,3.3132,3.3153,3.3144,3.3127,3.3135,3.3116,3.3127,3.3086,3.3085,3.3103,3.3083,3.3123,3.3077,3.3088,3.3089,3.3089,3.3204,3.3229,3.3304,3.3165,3.3166,3.3168,0,3.3221,3.3221,3.3267,3.3245,3.3249,3.3269,3.3266,3.3276,3.3265,3.325,3.3249,3.3217,3.3238,3.3192,3.322,3.3189,3.3192,3.3182,3.3184,3.3182,3.3131,3.3203,3.3327,3.3338,3.3183,3.3182,3.3181,0,3.3315,3.3326,3.3355,3.3352,3.3328,3.3342,3.3333,3.3319,3.3322,3.332,3.3321,3.3322,3.3323,3.3324,3.3292,3.3262,3.3323,3.3276,3.3311,3.3311,3.3324,3.3323,3.3448,3.333,3.333,3.333,3.333,0,3.3412,3.3442,3.3396,3.3413,3.3445,3.3406,3.3438,3.3424,3.3412,3.3425,3.3383,3.3396,3.3355,3.3364,3.334,3.3365,3.3366,3.3354,3.3347,3.3356,3.3357,3.3356,3.3349,3.3333,3.3332,3.3331,3.3331,0,3.3521,3.3492,3.3519,3.3494,3.3488,3.3512,3.349,3.3505,3.3484,3.3501,3.3503,3.3471,3.3479,3.3448,3.3451,3.3435,3.3472,3.3457,3.3475,3.347,3.3506,3.3502,3.3632,3.3646,3.3521,3.3523,3.3524,0,3.3584,3.3605,3.3582,3.3587,3.358,3.359,3.3591,3.3555,3.3558,3.3547,3.3562,3.3566,3.3567,3.3582,3.3559,3.356,3.3544,3.3589,3.3544,3.3552,3.3541,3.3539,3.354,3.3598,3.36,3.3601,3.3602,0,3.3697,3.3682,3.3686,3.3685,3.3688,3.3686,3.3681,3.3687,3.3648,3.3654,3.3661,3.3662,3.3664,3.3668,3.3664,3.3654,3.3621,3.3617,3.3624,3.3633,3.3642,3.3635,3.3498,3.3613,3.3612,3.3611,3.3611,3.361,3.3783,3.3799,3.3784,3.379,3.3782,3.3778,3.3789,3.377,3.3775,3.3774,3.3752,3.3763,3.375,3.3742,3.3734,3.3742,3.372,3.3732,3.3735,3.3738,3.3743,3.3643,3.3742,3.3741,3.3741,3.374,3.374,0,3.3892,3.388,3.3886,3.3879,3.3883,3.3852,3.3845,3.385,3.386,3.385,3.3852,3.3859,3.3863,3.384,3.384,3.385,3.3835,3.3851,3.3849,3.3846,3.3763,3.3755,3.3863,3.3863,3.3863,3.3863,3.3863,3.3863,3.3949,3.3973,3.3956,3.3975,3.3963,3.3973,3.3971,3.3966,3.3958,3.3968,3.397,3.3955,3.394,3.3938,3.3939,3.3932,3.3933,3.3955,3.3942,3.3865,3.3853,3.3841,3.3833,3.3956,3.3956,3.4024,3.4025,3.4025]}]]